Tracking 31027 objects as of 19-Jul-2025
HD Live streaming from Space Station
objects crossing your sky now

STARLINK-5826

Track STARLINK-5826 now!
10-day predictions
STARLINK-5826 is classified as:


NORAD ID: 55782
Int'l Code: 2023-028AT
Perigee: 577.3 km
Apogee: 581.1 km
Inclination: 70.0 °
Period: 96.1 minutes
Semi major axis: 6950 km
RCS: Unknown
Launch date: March 3, 2023
Source: United States (US)
Launch site: AIR FORCE WESTERN TEST RANGE (AFWTR)
Your satellite tracking list
FENGYUN 1C DEB
Track 1 satellite(s)




NASA's NSSDC Master Catalog

Two Line Element Set (TLE):
1 55782U 23028AT  25199.37517085 -.00000057  00000-0  30077-5 0  9999
2 55782  70.0000  75.4291 0002772 268.4555  91.6286 14.98329403131928
Source of the keplerian elements: AFSPC